Location: Street
(51.1247°N, 2.7429°W)
Time: 02:32:08
(UTC+00:00)

Courier 1B Rocket - Pass Details

Date: 01 December 2020
Orbit: 920 x 1202 km, 28.2° (Epoch: 22 January)

Event Time Altitude Azimuth Distance (km) Brightness Sun altitude
Rises 05:34:13 0° 216° (SW) 4,084 8.0 -20.8°
Reaches altitude 10° 05:40:23 10° 180° (S) 3,125 7.8 -19.9°
Maximum altitude 05:41:40 10° 171° (S) 3,088 7.8 -19.7°
Drops below altitude 10° 05:42:57 10° 161° (SSE) 3,118 8.0 -19.5°
Sets 05:49:03 0° 125° (SE) 4,043 9.5 -18.5°
